Location: Krishnamma Banjar
(17.2175°N, 80.5166°E)
Time: 18:54:05
(UTC+00:00)

BREEZE-M TANK - Pass Details

Date: 03 August 2024
Orbit: 596 x 24684 km, 45.3° (Epoch: 18 September)

Event Time Altitude Azimuth Distance (km) Brightness Sun altitude
Exits shadow 22:20:48 47° 343° (NNW) 899 3.3 -26.5°
Drops below altitude 10° 22:25:51 10° 38° (NE) 3,089 7.0 -25.5°
Sets 22:30:24 0° 43° (NE) 5,289 8.5 -24.5°
